Farmington, MO

6:59 AM CST on November 12, 2019 (GMT -0600)
Farmington Regional

Weather History for KFAM - June, 2019

Change the Weather History Date:

Wednesday, June 5, 2019

  Actual Average Record
Temperature  
Mean Temperature 78 °F -  
Max Temperature 90 °F 76 °F 90 °F (2019)
Min Temperature 64 °F 58 °F 46 °F (2003)
Cooling Degree Days 12    
Growing Degree Days 28 (Base 50)    
Moisture  
Dew Point 69 °F    
Average Humidity 79    
Maximum Humidity 97    
Minimum Humidity 59    
Precipitation  
Precipitation 0.03 in - - ()
Sea Level Pressure  
Sea Level Pressure 29.83 in    
Wind  
Wind Speed 8 mph (WSW)    
Max Wind Speed 26 mph    
Max Gust Speed 33 mph    
Visibility 10 miles    
Events      
Averages and records for this station are not official NWS values.
T = Trace of Precipitation, MM = Missing Value Source: NWS Daily Summary

Daily Weather History Graph

Daily Weather History Graph

Search for Another Location

Airport or City:

Astronomy

Jun. 05, 2019 Rise Set
Actual Time 5:40 AM CDT 8:20 PM CDT
Civil Twilight 5:09 AM CDT 8:51 PM CDT
Nautical Twilight 4:30 AM CDT 9:29 PM CDT
Astronomical Twilight 3:47 AM CDT 10:13 PM CDT
Moon 7:45 AM CDT (6/5) 10:47 PM CDT (6/5)
Length of Visible Light 15h 41m
Length of Day
14h 40m
Waxing Crescent, 7% of the Moon is Illuminated
Jun 5
Waxing Crescent
Jun 10
First Quarter
Jun 17
Full
Jun 25
Last Quarter
Jul 2
New

Hourly Weather History & Observations

Time (CDT) Temp. Heat Index Dew Point Humidity Pressure Visibility Wind Dir Wind Speed Gust Speed Precip Events Conditions
12:56 AM 66.9 °F - 66.0 °F 97% 29.89 in 10.0 mi South 8.1 mph - N/A   Scattered Clouds
1:56 AM 66.9 °F - 66.0 °F 97% 29.86 in 10.0 mi SSW 9.2 mph - N/A   Clear
2:56 AM 66.9 °F - 66.0 °F 97% 29.85 in 10.0 mi SW 3.5 mph - 0.01 in   Clear
3:56 AM 66.9 °F - 66.0 °F 97% 29.84 in 10.0 mi SW 6.9 mph - N/A   Clear
4:56 AM 66.9 °F - 66.0 °F 97% 29.85 in 10.0 mi Calm Calm - N/A   Clear
5:56 AM 70.0 °F - 68.0 °F 93% 29.86 in 8.0 mi WSW 4.6 mph - N/A   Clear
7:56 AM 75.9 °F - 68.0 °F 76% 29.85 in 10.0 mi WSW 6.9 mph - N/A   Clear
8:56 AM 78.1 °F - 70.0 °F 76% 29.84 in 10.0 mi West 5.8 mph 18.4 mph N/A   Clear
9:56 AM 81.0 °F 84.9 °F 71.1 °F 72% 29.84 in 10.0 mi West 10.4 mph 18.4 mph N/A   Clear
10:56 AM 82.9 °F 88.0 °F 72.0 °F 69% 29.84 in 10.0 mi WSW 10.4 mph 18.4 mph N/A   Clear
11:56 AM 84.9 °F 92.1 °F 73.9 °F 69% 29.84 in 10.0 mi West 8.1 mph - N/A   Clear
12:56 PM 87.1 °F 95.4 °F 73.9 °F 65% 29.82 in 10.0 mi West 9.2 mph - N/A   Partly Cloudy
1:56 PM 89.1 °F 97.0 °F 73.0 °F 59% 29.81 in 10.0 mi WSW 8.1 mph 17.3 mph N/A   Partly Cloudy
2:56 PM 89.1 °F 99.1 °F 75.0 °F 63% 29.80 in 10.0 mi WSW 5.8 mph - N/A   Mostly Cloudy
3:56 PM 87.1 °F 94.5 °F 73.0 °F 63% 29.79 in 10.0 mi SW 10.4 mph - N/A   Mostly Cloudy
4:56 PM 88.0 °F 98.5 °F 75.9 °F 67% 29.77 in 10.0 mi SW 8.1 mph - N/A   Mostly Cloudy
5:56 PM 87.1 °F 96.3 °F 75.0 °F 67% 29.75 in 10.0 mi SW 10.4 mph - N/A   Clear
6:56 PM 84.0 °F 91.2 °F 73.9 °F 72% 29.75 in 10.0 mi SSW 10.4 mph - N/A   Partly Cloudy
7:56 PM 82.0 °F 87.4 °F 73.0 °F 74% 29.78 in 10.0 mi SW 4.6 mph - N/A   Partly Cloudy
8:56 PM 73.0 °F - 64.0 °F 73% 29.85 in 10.0 mi North 26.5 mph 33.4 mph N/A   Mostly Cloudy
9:03 PM 71.6 °F - 62.6 °F 73% 29.90 in 10.0 mi North 21.9 mph 33.4 mph N/A   Mostly Cloudy
9:56 PM 66.0 °F - 64.0 °F 93% 29.90 in 10.0 mi East 8.1 mph - 0.02 in   Scattered Clouds
10:56 PM 66.0 °F - 64.0 °F 93% 29.87 in 10.0 mi East 3.5 mph - N/A   Clear
11:56 PM 64.9 °F - 64.0 °F 97% 29.86 in 10.0 mi WSW 4.6 mph - N/A   Scattered Clouds